User: anonymous   Login
Location: Unspecified
(0.0000°N, 0.0000°E)
Time: 11:25:21
(UTC+00:00)
Language:

AO-109 - Orbit

View from above orbital plane
View from above orbital plane
View from above satellite
View from above satellite

Ground track
Ground track

The orbit data is extracted from the following two-line orbital elements,

1 47311U 21002C   21342.77305461  .00001493  00000-0  74832-4 0  9991
2 47311  60.6876 358.2711 0034805 135.4941 224.8952 15.22529320 49405
Epoch (UTC): 08 December 2021 18:33:11
Eccentricity: 0.0034805
inclination: 60.6876°
perigee height: 474 km
apogee height: 522 km
right ascension of ascending node: 358.2711°
argument of perigee: 135.4941°
revolutions per day: 15.22529320
mean anomaly at epoch: 224.8952°
orbit number at epoch: 4940

The dashed part of the orbit path shows where the satellite is in the earth's shadow,  

DLR